STARLINK-1983 (47630 NORAD) Tracking and Keplerian Element Data

This shows tracking and keplerian element data for the satellite.

Feedback or suggestion? Click here.




ElementValue
Catalog47630
NameSTARLINK-1983
Epoch Orbit235
Epoch Day57.16667824
Epoch Year2021
RAAN52.0349
Inclination53.0492
Eccentricity0.0001377
Argument of Perigee88.3864
Mean Anonmoly165.9231
Mean Motion15.86058109
Decay Rate0.00058533
L11 47630U 21012L 21057.16667824 .00058533 00000-0 23342-3 0 9992
L22 47630 53.0492 52.0349 0001377 88.3864 165.9231 15.86058109 2353

Live tracking and technical data element details for STARLINK-1983 (NORAD 47630). STARLINK-1983 can be tracked NOW for your location showing map with azimuth and elevation plus other details from your city location.

Track the satellite on the map from your city or location and see movement details for azimuth, elevation, latitude, longitude, range, height, and movement on the map or in text.







IsCatalogInMostPopularTable: catalog: 47630, numindb: -1

Insert: records affected: 1


GetName: 47630 STARLINK-1983

Hit Count: inserted at: Fri, 26 Feb 2021 09:25:28 GMT